LZ3DJ-10 Weather Reports


Display with metric or nautical units.
time (UTC)temp
F
wind
direction
speed
MPH
gust
MPH
rain 1hr
in
rain 24hr
in
rain mn
in
humidity
%
barometer
mb
20260906043005 70 325 3.0 6.0 0.00 0.00 0.00 53 1017.9
20260906041506 70 323 2.0 7.0 0.00 0.00 0.00 53 1017.8
20260906040006 70 326 1.0 5.0 0.00 0.00 0.00 53 1017.6
20260906034505 70 324 2.0 8.0 0.00 0.00 0.00 52 1017.3
20260906033006 71 334 1.0 5.0 0.00 0.00 0.00 52 1016.9
20260906031506 71 323 1.0 5.0 0.00 0.00 0.00 52 1016.6
20260906030005 72 321 2.0 7.0 0.00 0.00 0.00 51 1016.4
20260906024506 72 320 2.0 7.0 0.00 0.00 0.00 51 1016.2
20260906023005 72 333 1.0 5.0 0.00 0.00 0.00 51 1016.0
20260906021505 72 308 2.0 7.0 0.00 0.00 0.00 50 1016.0
20260906020005 72 332 2.0 6.0 0.00 0.00 0.00 49 1015.8
20260906014505 72 342 3.0 8.0 0.00 0.00 0.00 49 1015.9
20260906013005 71 316 1.0 5.0 0.00 0.00 0.00 48 1016.1
20260906011505 70 327 1.0 3.0 0.00 0.00 0.00 48 1016.1
20260906010006 65 356 0.0 1.0 0.00 0.00 0.00 57 1016.4
20260906004506 66 0.0 0.0 0.00 0.00 0.00 57 1016.2
20260906003006 66 0.0 0.0 0.00 0.00 0.00 56 1016.2
20260906001505 65 0.0 0.0 0.00 0.00 0.00 58 1016.2
20260906000006 67 0.0 0.0 0.00 0.00 0.00 54 1015.9
20260905234506 66 336 0.0 1.0 0.00 0.00 0.00 56 1015.9
20260905233005 66 0.0 0.0 0.00 0.00 0.00 56 1015.9
20260905231505 67 0.0 0.0 0.00 0.00 0.00 54 1015.6
20260905230005 68 0.0 0.0 0.00 0.00 0.00 53 1015.4
20260905224505 68 143 0.0 1.0 0.00 0.00 0.00 52 1015.4
20260905223006 69 0.0 0.0 0.00 0.00 0.00 49 1015.2
20260905221506 69 0.0 0.0 0.00 0.00 0.00 50 1015.2
20260905220005 70 0.0 0.0 0.00 0.00 0.00 50 1015.0
20260905214505 69 0.0 0.0 0.00 0.00 0.00 52 1014.9
20260905213005 70 0.0 0.0 0.00 0.00 0.00 53 1014.7
20260905211505 70 0.0 0.0 0.00 0.00 0.00 52 1014.6
20260905210005 71 0.0 0.0 0.00 0.00 0.00 49 1014.2
20260905204506 71 0.0 0.0 0.00 0.00 0.00 48 1014.3
20260905203006 73 0.0 0.0 0.00 0.00 0.00 46 1013.9
20260905201505 74 0.0 0.0 0.00 0.00 0.00 43 1013.7
20260905200005 75 0.0 0.0 0.00 0.00 0.00 43 1013.6
20260905194506 74 0.0 0.0 0.00 0.00 0.00 45 1013.6
20260905193006 74 0.0 0.0 0.00 0.00 0.00 44 1013.6
20260905191506 74 0.0 0.0 0.00 0.00 0.00 47 1013.4
20260905190005 75 0.0 0.0 0.00 0.00 0.00 45 1013.3
20260905184505 76 0.0 0.0 0.00 0.00 0.00 43 1013.1
20260905183005 77 0.0 0.0 0.00 0.00 0.00 42 1012.9
20260905181506 78 0.0 0.0 0.00 0.00 0.00 40 1012.4
20260905180005 79 0.0 0.0 0.00 0.00 0.00 39 1012.2
20260905174505 80 0.0 0.0 0.00 0.00 0.00 39 1012.0
20260905173006 82 0.0 0.0 0.00 0.00 0.00 36 1011.5
20260905171506 83 0.0 0.0 0.00 0.00 0.00 34 1011.2
20260905170005 86 168 0.0 2.0 0.00 0.00 0.00 32 1010.8
20260905164505 89 141 1.0 2.0 0.00 0.00 0.00 30 1010.4
20260905163006 92 152 1.0 3.0 0.00 0.00 0.00 27 1010.1
20260905161505 96 321 0.0 2.0 0.00 0.00 0.00 25 1009.7
20260905160006 96 197 0.0 1.0 0.00 0.00 0.00 24 1009.6
20260905154505 98 323 0.0 2.0 0.00 0.00 0.00 24 1009.4
20260905153006 99 137 0.0 1.0 0.00 0.00 0.00 23 1009.4
20260905151506 98 326 0.0 3.0 0.00 0.00 0.00 23 1009.6
20260905150005 100 314 0.0 1.0 0.00 0.00 0.00 22 1009.4
20260905144505 99 324 1.0 5.0 0.00 0.00 0.00 22 1009.6
20260905143006 99 325 1.0 2.0 0.00 0.00 0.00 22 1009.6
20260905141506 101 339 0.0 1.0 0.00 0.00 0.00 22 1009.5
20260905140006 98 323 1.0 5.0 0.00 0.00 0.00 22 1009.8
20260905134505 100 110 0.0 2.0 0.00 0.00 0.00 22 1009.8
20260905133005 99 134 0.0 1.0 0.00 0.00 0.00 22 1009.9
20260905131506 99 332 0.0 2.0 0.00 0.00 0.00 23 1010.0
20260905130006 99 323 1.0 3.0 0.00 0.00 0.00 23 1010.1
20260905124505 98 49 1.0 5.0 0.00 0.00 0.00 23 1010.2
20260905123006 99 326 0.0 2.0 0.00 0.00 0.00 25 1010.3
20260905121506 96 321 0.0 2.0 0.00 0.00 0.00 26 1010.7
20260905120006 94 329 0.0 2.0 0.00 0.00 0.00 27 1011.2
20260905114506 93 327 1.0 3.0 0.00 0.00 0.00 29 1011.6
20260905113006 93 319 1.0 5.0 0.00 0.00 0.00 29 1011.8
20260905111505 94 111 0.0 2.0 0.00 0.00 0.00 30 1011.8
20260905110006 90 329 1.0 6.0 0.00 0.00 0.00 31 1012.3
20260905104505 89 130 0.0 2.0 0.00 0.00 0.00 33 1012.6
20260905103005 87 144 1.0 3.0 0.00 0.00 0.00 35 1012.9
20260905101505 87 0.0 0.0 0.00 0.00 0.00 36 1013.2
20260905100006 86 333 0.0 2.0 0.00 0.00 0.00 37 1013.5
20260905094505 84 323 0.0 2.0 0.00 0.00 0.00 38 1013.9
20260905093005 83 332 1.0 2.0 0.00 0.00 0.00 38 1014.1
20260905091505 82 331 0.0 1.0 0.00 0.00 0.00 40 1014.3
20260905090005 81 0.0 0.0 0.00 0.00 0.00 41 1014.5
20260905084505 80 133 0.0 2.0 0.00 0.00 0.00 42 1014.9
20260905083005 75 0.0 0.0 0.00 0.00 0.00 47 1015.5
20260905081506 73 139 0.0 2.0 0.00 0.00 0.00 49 1016.0
20260905080006 73 115 0.0 1.0 0.00 0.00 0.00 50 1016.1
20260905074505 71 113 0.0 1.0 0.00 0.00 0.00 52 1016.3
20260905073006 70 0.0 0.0 0.00 0.00 0.00 53 1016.5
20260905071505 68 130 0.0 1.0 0.00 0.00 0.00 55 1016.6
20260905070005 67 138 0.0 2.0 0.00 0.00 0.00 57 1016.8
20260905064506 66 337 0.0 1.0 0.00 0.00 0.00 59 1017.0
20260905063005 65 122 0.0 2.0 0.00 0.00 0.00 59 1017.0
20260905061505 64 0.0 0.0 0.00 0.00 0.00 61 1017.2
20260905060005 63 0.0 0.0 0.00 0.00 0.00 64 1017.3
20260905054505 62 143 0.0 1.0 0.00 0.00 0.00 66 1017.4
20260905053006 61 0.0 0.0 0.00 0.00 0.00 68 1017.5
20260905051506 60 0.0 0.0 0.00 0.00 0.00 68 1017.4
20260905050005 59 0.0 0.0 0.00 0.00 0.00 71 1017.7
20260905044505 58 0.0 0.0 0.00 0.00 0.00 72 1017.8